CW4221 Weather Reports


Display with metric or nautical units.
time (UTC)temp
F
wind
direction
speed
MPH
gust
MPH
rain 1hr
in
rain 24hr
in
rain mn
in
humidity
%
barometer
mb
20260508135309 60 205 0.0 3.0 0.00 0.00 0.00 68 1013.8
20260508134810 60 164 0.0 5.0 0.00 0.00 0.00 69 1013.8
20260508134326 60 201 0.0 5.0 0.00 0.00 0.00 69 1013.8
20260508133822 59 206 0.0 14.0 0.00 0.00 0.00 69 1013.8
20260508133317 59 209 2.0 14.0 0.00 0.00 0.00 69 1013.8
20260508132812 58 220 0.0 1.0 0.00 0.00 0.00 70 1013.7
20260508132328 58 138 0.0 1.0 0.00 0.00 0.00 71 1013.7
20260508131824 58 231 0.0 3.0 0.00 0.00 0.00 71 1013.8
20260508131340 57 186 0.0 3.0 0.00 0.00 0.00 72 1013.7
20260508130820 57 229 0.0 10.0 0.00 0.00 0.00 72 1013.7
20260508130316 57 213 0.0 3.0 0.00 0.00 0.00 72 1013.7
20260508125811 56 202 0.0 3.0 0.00 0.00 0.00 73 1013.8
20260508125347 56 206 0.0 3.0 0.00 0.00 0.00 74 1013.6
20260508124823 55 234 0.0 1.0 0.00 0.00 0.00 74 1013.5
20260508124318 55 199 0.0 1.0 0.00 0.00 0.00 74 1013.5
20260508123815 55 209 0.0 2.0 0.00 0.00 0.00 74 1013.4
20260508123315 55 234 0.0 4.0 0.00 0.00 0.00 75 1013.5
20260508122831 54 211 0.0 4.0 0.00 0.00 0.00 76 1013.4
20260508122326 54 161 0.0 1.0 0.00 0.00 0.00 76 1013.3
20260508121822 53 209 0.0 1.0 0.00 0.00 0.00 76 1013.3
20260508121319 53 163 0.0 1.0 0.00 0.00 0.00 77 1013.4
20260508120816 53 209 0.0 1.0 0.00 0.00 0.00 77 1013.3
20260508120332 52 255 0.0 2.0 0.00 0.00 0.00 77 1013.3
20260508115826 52 233 0.0 2.0 0.00 0.00 0.00 78 1013.3
20260508115322 52 173 0.0 0.0 0.00 0.00 0.00 78 1013.3
20260508114822 52 140 0.0 0.0 0.00 0.00 0.00 78 1013.3
20260508114317 51 210 0.0 0.0 0.00 0.00 0.00 78 1013.4
20260508113815 51 210 0.0 0.0 0.00 0.00 0.00 78 1013.3
20260508113311 51 210 0.0 0.0 0.00 0.00 0.00 78 1013.3
20260508112827 51 210 0.0 0.0 0.00 0.00 0.00 78 1013.2
20260508112322 51 209 0.0 0.0 0.00 0.00 0.00 79 1013.2
20260508111819 51 190 0.0 1.0 0.00 0.00 0.00 79 1013.1
20260508111318 51 205 0.0 3.0 0.00 0.00 0.00 79 1013.2
20260508110814 51 175 0.0 3.0 0.00 0.00 0.00 79 1013.1
20260508110310 51 236 0.0 1.0 0.00 0.00 0.00 79 1013.0
20260508105845 51 193 0.0 0.0 0.00 0.00 0.00 79 1013.0
20260508105321 51 192 0.0 0.0 0.00 0.00 0.00 79 1013.0
20260508104814 51 194 0.0 0.0 0.00 0.00 0.00 79 1013.0
20260508104311 50 188 0.0 0.0 0.00 0.00 0.00 80 1013.0
20260508103810 50 178 0.0 0.0 0.00 0.00 0.00 80 1013.0
20260508103327 50 186 0.0 0.0 0.00 0.00 0.00 81 1013.0
20260508102844 49 196 0.0 0.0 0.00 0.00 0.00 82 1013.0
20260508102318 49 225 0.0 0.0 0.00 0.00 0.00 83 1013.0
20260508101814 48 225 0.0 0.0 0.00 0.00 0.00 84 1013.0
20260508101311 48 225 0.0 0.0 0.00 0.00 0.00 85 1013.0
20260508100827 48 225 0.0 0.0 0.00 0.00 0.00 85 1013.1
20260508100323 47 225 0.0 0.0 0.00 0.00 0.00 86 1013.1
20260508095822 47 225 0.0 0.0 0.00 0.00 0.00 86 1013.2
20260508095318 47 225 0.0 0.0 0.00 0.00 0.00 86 1013.1
20260508094814 47 225 0.0 0.0 0.00 0.00 0.00 85 1013.1
20260508094350 47 225 0.0 0.0 0.00 0.00 0.00 85 1013.1
20260508093825 48 225 0.0 0.0 0.00 0.00 0.00 84 1013.1
20260508093320 48 225 0.0 0.0 0.00 0.00 0.00 83 1013.1
20260508092817 48 225 0.0 0.0 0.00 0.00 0.00 84 1013.1
20260508092314 48 225 0.0 0.0 0.00 0.00 0.00 84 1013.1
20260508091812 48 225 0.0 0.0 0.00 0.00 0.00 85 1013.1
20260508091328 48 225 0.0 0.0 0.00 0.00 0.00 84 1013.0
20260508090824 48 225 0.0 0.0 0.00 0.00 0.00 84 1013.1
20260508090320 48 225 0.0 0.0 0.00 0.00 0.00 83 1013.2
20260508085815 48 225 0.0 0.0 0.00 0.00 0.00 82 1013.1
20260508085331 49 225 0.0 0.0 0.00 0.00 0.00 82 1013.2
20260508084846 49 225 0.0 0.0 0.00 0.00 0.00 82 1013.3
20260508084342 49 225 0.0 0.0 0.00 0.00 0.00 81 1013.2
20260508083817 49 225 0.0 0.0 0.00 0.00 0.00 81 1013.3
20260508083319 50 225 0.0 0.0 0.00 0.00 0.00 80 1013.3
20260508082834 50 225 0.0 0.0 0.00 0.00 0.00 80 1013.3
20260508082309 50 225 0.0 0.0 0.00 0.00 0.00 80 1013.3
20260508081826 50 225 0.0 0.0 0.00 0.00 0.00 80 1013.4
20260508081323 50 225 0.0 0.0 0.00 0.00 0.00 80 1013.4
20260508080820 50 225 0.0 0.0 0.00 0.00 0.00 80 1013.4
20260508080315 50 225 0.0 0.0 0.00 0.00 0.00 80 1013.5
20260508075809 50 230 0.0 0.0 0.00 0.00 0.00 80 1013.4
20260508075345 50 186 0.0 0.0 0.00 0.00 0.00 81 1013.4
20260508074824 50 198 0.0 0.0 0.00 0.00 0.00 81 1013.5
20260508074319 50 198 0.0 0.0 0.00 0.00 0.00 82 1013.6
20260508073816 49 198 0.0 0.0 0.00 0.00 0.00 83 1013.6
20260508073313 49 205 0.0 0.0 0.00 0.00 0.00 85 1013.7
20260508072829 48 228 0.0 0.0 0.00 0.00 0.00 88 1013.7
20260508072345 48 229 0.0 0.0 0.00 0.00 0.00 90 1013.9
20260508071821 47 229 0.0 0.0 0.00 0.00 0.00 92 1013.9
20260508071337 46 229 0.0 0.0 0.00 0.00 0.00 92 1014.0
20260508070812 45 229 0.0 0.0 0.00 0.00 0.00 92 1014.0
20260508070332 44 229 0.0 0.0 0.00 0.00 0.00 91 1014.0
20260508065826 44 229 0.0 0.0 0.00 0.00 0.00 91 1014.1
20260508065322 44 229 0.0 0.0 0.00 0.00 0.00 91 1014.1
20260508064818 44 229 0.0 0.0 0.00 0.00 0.00 91 1014.1
20260508064315 44 229 0.0 0.0 0.00 0.00 0.00 91 1014.1
20260508063810 44 229 0.0 0.0 0.00 0.00 0.00 91 1014.1
20260508063347 44 229 0.0 0.0 0.00 0.00 0.00 91 1014.2
20260508062821 44 229 0.0 0.0 0.00 0.00 0.00 91 1014.2
20260508062316 44 229 0.0 0.0 0.00 0.00 0.00 91 1014.3
20260508061817 44 229 0.0 0.0 0.00 0.00 0.00 91 1014.3
20260508061312 44 229 0.0 0.0 0.00 0.00 0.00 91 1014.3
20260508060827 44 229 0.0 0.0 0.00 0.00 0.00 90 1014.3
20260508060323 44 229 0.0 0.0 0.00 0.00 0.00 90 1014.3
20260508055820 44 229 0.0 0.0 0.00 0.00 0.00 91 1014.3
20260508055315 44 229 0.0 0.0 0.00 0.00 0.00 90 1014.3
20260508054811 44 229 0.0 0.0 0.00 0.00 0.00 90 1014.4
20260508054311 44 229 0.0 0.0 0.00 0.00 0.00 90 1014.4
20260508053827 44 229 0.0 0.0 0.00 0.00 0.00 89 1014.3
20260508053324 44 229 0.0 0.0 0.00 0.00 0.00 89 1014.4
20260508052820 45 229 0.0 0.0 0.00 0.00 0.00 90 1014.4
20260508052316 45 229 0.0 0.0 0.00 0.00 0.00 90 1014.4
20260508051812 45 229 0.0 0.0 0.00 0.00 0.00 90 1014.4
20260508051328 45 229 0.0 0.0 0.00 0.00 0.00 90 1014.5
20260508050824 45 229 0.0 0.0 0.00 0.00 0.00 90 1014.6
20260508050324 44 229 0.0 0.0 0.00 0.00 0.00 89 1014.6
20260508045819 45 229 0.0 0.0 0.00 0.00 0.00 89 1014.6
20260508045314 45 229 0.0 0.0 0.00 0.00 0.00 89 1014.7
20260508044811 45 229 0.0 0.0 0.00 0.00 0.00 89 1014.7
20260508044349 45 229 0.0 0.0 0.00 0.00 0.00 89 1014.7
20260508043824 45 229 0.0 0.0 0.00 0.00 0.00 89 1014.8
20260508043321 45 229 0.0 0.0 0.00 0.00 0.00 88 1014.9
20260508042820 45 229 0.0 0.0 0.00 0.00 0.00 88 1014.9
20260508042316 46 229 0.0 0.0 0.00 0.00 0.00 88 1015.0
20260508041813 46 229 0.0 0.0 0.00 0.00 0.00 87 1015.1
20260508041329 46 229 0.0 0.0 0.00 0.00 0.00 87 1015.1
20260508040825 46 229 0.0 0.0 0.00 0.00 0.00 87 1015.1
20260508040321 46 229 0.0 0.0 0.00 0.00 0.00 86 1015.2
20260508035815 47 229 0.0 0.0 0.00 0.00 0.00 86 1015.1
20260508035315 47 229 0.0 0.0 0.00 0.00 0.00 86 1015.2
20260508034812 47 229 0.0 0.0 0.00 0.00 0.00 85 1015.2
20260508034328 47 229 0.0 0.0 0.00 0.00 0.00 84 1015.2
20260508033824 47 229 0.0 0.0 0.00 0.00 0.00 84 1015.2
20260508033320 48 229 0.0 0.0 0.00 0.00 0.00 85 1015.2
20260508032816 47 229 0.0 0.0 0.00 0.00 0.00 84 1015.3
20260508032312 48 229 0.0 0.0 0.00 0.00 0.00 83 1015.3
20260508031811 48 229 0.0 0.0 0.00 0.00 0.00 81 1015.3
20260508031347 49 229 0.0 0.0 0.00 0.00 0.00 81 1015.3
20260508030822 49 229 0.0 0.0 0.00 0.00 0.00 82 1015.3
20260508030317 49 229 0.0 0.0 0.00 0.00 0.00 82 1015.2
20260508025832 49 229 0.0 0.0 0.00 0.00 0.00 81 1015.1
20260508025348 49 229 0.0 0.0 0.00 0.00 0.00 81 1015.0
20260508024824 49 229 0.0 0.0 0.00 0.00 0.00 81 1015.0
20260508024319 49 229 0.0 0.0 0.00 0.00 0.00 80 1014.9
20260508023815 50 229 0.0 0.0 0.00 0.00 0.00 79 1014.8
20260508023315 50 229 0.0 0.0 0.00 0.00 0.00 78 1014.7
20260508022812 51 229 0.0 0.0 0.00 0.00 0.00 77 1014.6
20260508022329 51 229 0.0 0.0 0.00 0.00 0.00 77 1014.5
20260508021825 51 229 0.0 0.0 0.00 0.00 0.00 77 1014.4
20260508021320 51 229 0.0 0.0 0.00 0.00 0.00 77 1014.3
20260508020816 52 229 0.0 0.0 0.00 0.00 0.00 75 1014.3
20260508020314 53 229 0.0 0.0 0.00 0.00 0.00 73 1014.2
20260508015812 53 229 0.0 0.0 0.00 0.00 0.00 72 1014.2
20260508015309 54 229 0.0 0.0 0.00 0.00 0.00 70 1014.2
20260508014845 55 229 0.0 0.0 0.00 0.00 0.00 69 1014.2
20260508014340 55 229 0.0 0.0 0.00 0.00 0.00 68 1014.2
20260508013815 56 229 0.0 0.0 0.00 0.00 0.00 68 1014.1
20260508013311 58 229 0.0 0.0 0.00 0.00 0.00 64 1014.2
20260508012826 59 229 0.0 0.0 0.00 0.00 0.00 59 1014.1
20260508012321 60 229 0.0 0.0 0.00 0.00 0.00 55 1014.0
20260508011817 61 229 0.0 0.0 0.00 0.00 0.00 55 1014.0
20260508011317 61 229 0.0 0.0 0.00 0.00 0.00 55 1013.9
20260508010813 61 229 0.0 0.0 0.00 0.00 0.00 54 1013.9
20260508010349 61 234 0.0 0.0 0.00 0.00 0.00 54 1013.8
20260508005823 62 234 0.0 0.0 0.00 0.00 0.00 53 1013.8
20260508005339 62 234 0.0 0.0 0.00 0.00 0.00 53 1013.7
20260508004815 62 212 0.0 0.0 0.00 0.00 0.00 53 1013.7
20260508004310 62 233 0.0 0.0 0.00 0.00 0.00 53 1013.7
20260508003826 63 276 0.0 0.0 0.00 0.00 0.00 52 1013.7
20260508003342 63 218 0.0 3.0 0.00 0.00 0.00 51 1013.7
20260508002821 63 211 0.0 3.0 0.00 0.00 0.00 51 1013.7
20260508002318 63 219 0.0 1.0 0.00 0.00 0.00 51 1013.7
20260508001815 64 223 0.0 4.0 0.00 0.00 0.00 51 1013.7
20260508001310 64 246 0.0 4.0 0.00 0.00 0.00 50 1013.7
20260508000826 64 243 0.0 3.0 0.00 0.00 0.00 50 1013.7
20260508000342 64 210 0.0 1.0 0.00 0.00 0.00 50 1013.8
20260507235816 64 249 0.0 1.0 0.00 0.00 0.00 51 1013.7
20260507235332 65 242 0.0 1.0 0.00 0.00 0.00 50 1013.7
20260507234812 65 229 0.0 1.0 0.00 0.00 0.00 49 1013.7
20260507234327 65 206 0.0 1.0 0.00 0.00 0.00 49 1013.7
20260507233823 65 224 0.0 7.0 0.00 0.00 0.00 48 1013.8
20260507233320 66 264 1.0 7.0 0.00 0.00 0.00 47 1013.8
20260507232815 66 254 0.0 1.0 0.00 0.00 0.00 48 1013.9
20260507232310 66 227 0.0 2.0 0.00 0.00 0.00 48 1013.8
20260507231826 66 267 0.0 2.0 0.00 0.00 0.00 47 1013.9
20260507231322 66 234 0.0 0.0 0.00 0.00 0.00 48 1013.9
20260507230821 65 216 0.0 0.0 0.00 0.00 0.00 48 1014.0
20260507230317 66 242 0.0 0.0 0.00 0.00 0.00 47 1013.9
20260507225812 66 248 0.0 5.0 0.00 0.00 0.00 46 1014.0
20260507225309 66 213 0.0 5.0 0.00 0.00 0.00 47 1014.1
20260507224826 66 261 0.0 1.0 0.00 0.00 0.00 48 1014.2
20260507224323 66 190 0.0 3.0 0.00 0.00 0.00 45 1014.2
20260507223819 66 263 0.0 4.0 0.00 0.00 0.00 48 1014.3
20260507223319 67 235 0.0 4.0 0.00 0.00 0.00 46 1014.3
20260507222815 67 205 0.0 2.0 0.00 0.00 0.00 46 1014.3
20260507222309 67 207 0.0 2.0 0.00 0.00 0.00 47 1014.4
20260507221826 66 256 0.0 8.0 0.00 0.00 0.00 51 1014.5
20260507221322 67 250 0.0 8.0 0.00 0.00 0.00 47 1014.6
20260507220818 66 262 0.0 1.0 0.00 0.00 0.00 47 1014.5
20260507220314 66 261 0.0 6.0 0.00 0.00 0.00 46 1014.5
20260507215812 67 251 1.0 5.0 0.00 0.00 0.00 46 1014.6
20260507215309 67 236 0.0 1.0 0.00 0.00 0.00 45 1014.6
20260507214826 67 246 0.0 11.0 0.00 0.00 0.00 45 1014.5
20260507214323 66 242 0.0 11.0 0.00 0.00 0.00 43 1014.5
20260507213819 67 215 0.0 11.0 0.00 0.00 0.00 44 1014.5
20260507213316 67 248 1.0 11.0 0.00 0.00 0.00 43 1014.5
20260507212811 67 211 0.0 3.0 0.00 0.00 0.00 45 1014.6
20260507212313 67 273 0.0 7.0 0.00 0.00 0.00 43 1014.6
20260507211829 67 264 0.0 2.0 0.00 0.00 0.00 46 1014.6
20260507211325 67 254 0.0 1.0 0.00 0.00 0.00 41 1014.7
20260507210822 67 227 0.0 3.0 0.00 0.00 0.00 42 1014.7
20260507210318 67 244 0.0 3.0 0.00 0.00 0.00 45 1014.8
20260507205815 67 273 0.0 1.0 0.00 0.00 0.00 44 1014.9
20260507205311 66 199 0.0 1.0 0.00 0.00 0.00 40 1015.0
20260507204810 67 263 0.0 7.0 0.00 0.00 0.00 43 1015.1
20260507204346 66 240 1.0 9.0 0.00 0.00 0.00 44 1015.1
20260507203822 66 269 0.0 9.0 0.00 0.00 0.00 42 1015.2
20260507203338 67 262 0.0 9.0 0.00 0.00 0.00 45 1015.4
20260507202814 67 242 0.0 5.0 0.00 0.00 0.00 45 1015.4
20260507202310 67 217 0.0 5.0 0.00 0.00 0.00 41 1015.4
20260507201825 67 132 0.0 5.0 0.00 0.00 0.00 47 1015.4
20260507201322 66 265 0.0 5.0 0.00 0.00 0.00 47 1015.5
20260507200817 66 246 0.0 4.0 0.00 0.00 0.00 42 1015.7
20260507200317 66 163 0.0 1.0 0.00 0.00 0.00 42 1015.7
20260507195812 66 252 0.0 1.0 0.00 0.00 0.00 48 1015.9
20260507195328 66 229 0.0 6.0 0.00 0.00 0.00 42 1015.9
20260507194844 66 242 0.0 9.0 0.00 0.00 0.00 43 1015.9
20260507194318 66 273 2.0 9.0 0.00 0.00 0.00 41 1016.0
20260507193835 65 196 0.0 4.0 0.00 0.00 0.00 41 1015.9
20260507193330 65 263 0.0 11.0 0.00 0.00 0.00 43 1016.1
20260507192810 65 250 0.0 11.0 0.00 0.00 0.00 42 1016.2
20260507192346 65 235 0.0 9.0 0.00 0.00 0.00 44 1016.2
20260507191820 65 267 0.0 9.0 0.00 0.00 0.00 43 1016.3
20260507191336 66 263 1.0 7.0 0.00 0.00 0.00 41 1016.2
20260507190810 66 186 0.0 10.0 0.00 0.00 0.00 47 1016.2
20260507190326 65 254 1.0 10.0 0.00 0.00 0.00 41 1016.4
20260507185822 65 280 0.0 4.0 0.00 0.00 0.00 40 1016.3
20260507185338 65 210 0.0 1.0 0.00 0.00 0.00 43 1016.3
20260507184814 64 216 0.0 0.0 0.00 0.00 0.00 40 1016.2
20260507184313 65 257 0.0 2.0 0.00 0.00 0.00 44 1016.4
20260507183809 65 207 0.0 2.0 0.00 0.00 0.00 41 1016.5
20260507182828 64 269 0.0 3.0 0.00 0.00 0.00 41 1016.6
20260507182345 64 269 0.0 3.0 0.00 0.00 0.00 43 1016.7
20260507181821 63 161 0.0 0.0 0.00 0.00 0.00 40 1016.7